Simultaneous Nadir Overpasses (SNOs) Predictions

Prediction of SNOs near US between AQUA and NPP Satellite Orbit:

Table of predicted SNOs near US for the next 10.0 days since TLE Epoch: 1/12/2021
Index Date (AQUA) Time (AQUA) AQUA Lat,Lon Date (NPP) Time (NPP) NPP Lat,Lon Distance(km) Time Diff (sec)
1 01/14/2021 07:18:39 49.92, -75.98 01/14/2021 07:19:47 50.33, -78.17 163.09 68
2 01/14/2021 08:57:32 49.92,-100.70 01/14/2021 09:01:14 50.50,-103.47 207.57 222
3 01/16/2021 18:16:48 49.94, -80.17 01/16/2021 18:10:03 49.64, -81.69 114.36 405
4 01/16/2021 19:55:42 50.00,-104.91 01/16/2021 19:51:33 49.65,-107.07 159.52 249
5 01/16/2021 21:30:52 36.70,-125.00 01/16/2021 21:29:11 36.21,-127.55 234.35 101
6 01/19/2021 09:24:09 20.85,-114.04 01/19/2021 09:16:03 20.96,-114.50 49.02 486
7 01/22/2021 06:30:14 46.11, -65.11 01/22/2021 06:30:10 46.43, -67.15 160.58 4
8 01/22/2021 08:08:03 49.91, -88.33 01/22/2021 08:10:31 50.40, -90.84 186.81 148
